Time,TemperatureF,DewpointF,PressureIn,WindDirection,WindDirectionDegrees,WindSpeedMPH,WindSpeedGustMPH,Humidity,HourlyPrecipIn,Conditions,Clouds,dailyrainin,SoftwareType,DateUTC
2013-04-24 00:13:00,61.7,55.0,30.02,NW,326,0.0,5.0,78,0.00,,,0.00,weatherlink.com 1.10,2013-04-24 05:13:00,
2013-04-24 00:28:00,60.5,54.0,30.03,NNW,339,0.0,5.0,78,0.00,,,0.00,weatherlink.com 1.10,2013-04-24 05:28:00,
2013-04-24 00:43:00,59.8,53.0,30.04,NNW,327,0.0,3.0,79,0.00,,,0.00,weatherlink.com 1.10,2013-04-24 05:43:00,
2013-04-24 00:58:00,59.2,53.0,30.05,NNW,340,1.0,4.0,79,0.00,,,0.00,weatherlink.com 1.10,2013-04-24 05:58:00,
2013-04-24 01:13:00,58.6,52.0,30.04,NNW,329,0.0,3.0,79,0.00,,,0.00,weatherlink.com 1.10,2013-04-24 06:13:00,
2013-04-24 01:28:00,57.8,51.0,30.04,SW,222,1.0,6.0,79,0.00,,,0.00,weatherlink.com 1.10,2013-04-24 06:28:00,
2013-04-24 01:43:00,57.2,50.0,30.06,NNW,346,1.0,4.0,78,0.00,,,0.00,weatherlink.com 1.10,2013-04-24 06:43:00,
2013-04-24 01:58:00,56.2,49.0,30.06,NNW,330,0.0,6.0,78,0.00,,,0.00,weatherlink.com 1.10,2013-04-24 06:58:00,
2013-04-24 02:13:00,54.7,48.0,30.07,NW,325,0.0,6.0,78,0.00,,,0.00,weatherlink.com 1.10,2013-04-24 07:13:00,
2013-04-24 02:45:00,52.2,47.0,30.07,NNW,337,0.0,6.0,82,0.00,,,0.00,weatherlink.com 1.10,2013-04-24 07:45:00,
2013-04-24 02:58:00,51.1,46.0,30.07,NW,325,1.0,7.0,83,0.00,,,0.00,weatherlink.com 1.10,2013-04-24 07:58:00,
2013-04-24 03:13:00,50.4,45.0,30.08,NW,321,1.0,6.0,82,0.00,,,0.00,weatherlink.com 1.10,2013-04-24 08:13:00,
2013-04-24 03:28:00,49.9,45.0,30.08,NW,315,0.0,4.0,84,0.00,,,0.00,weatherlink.com 1.10,2013-04-24 08:28:00,
2013-04-24 03:44:00,49.5,45.0,30.09,NW,311,0.0,6.0,83,0.00,,,0.00,weatherlink.com 1.10,2013-04-24 08:44:00,
2013-04-24 03:59:00,49.0,44.0,30.10,NW,323,0.0,6.0,83,0.00,,,0.00,weatherlink.com 1.10,2013-04-24 08:59:00,
2013-04-24 04:14:00,48.8,44.0,30.09,NW,306,3.0,8.0,84,0.00,,,0.00,weatherlink.com 1.10,2013-04-24 09:14:00,
2013-04-24 04:29:00,48.3,44.0,30.10,NW,314,0.0,9.0,84,0.00,,,0.00,weatherlink.com 1.10,2013-04-24 09:29:00,
2013-04-24 04:44:00,48.0,43.0,30.11,NW,322,3.0,7.0,84,0.00,,,0.00,weatherlink.com 1.10,2013-04-24 09:44:00,
2013-04-24 04:59:00,47.9,43.0,30.12,SSE,161,1.0,9.0,82,0.00,,,0.00,weatherlink.com 1.10,2013-04-24 09:59:00,
2013-04-24 05:14:00,47.7,43.0,30.12,NNW,331,2.0,5.0,82,0.00,,,0.00,weatherlink.com 1.10,2013-04-24 10:14:00,
2013-04-24 05:29:00,47.5,42.0,30.13,North,9,1.0,8.0,82,0.00,,,0.00,weatherlink.com 1.10,2013-04-24 10:29:00,
2013-04-24 05:44:00,47.5,42.0,30.14,East,101,0.0,6.0,82,0.00,,,0.00,weatherlink.com 1.10,2013-04-24 10:44:00,
2013-04-24 05:59:00,47.5,42.0,30.15,NW,315,2.0,8.0,81,0.00,,,0.00,weatherlink.com 1.10,2013-04-24 10:59:00,
2013-04-24 06:14:00,47.4,42.0,30.16,NW,320,1.0,7.0,82,0.00,,,0.00,weatherlink.com 1.10,2013-04-24 11:14:00,
2013-04-24 06:29:00,47.0,41.0,30.17,NW,321,3.0,8.0,80,0.00,,,0.00,weatherlink.com 1.10,2013-04-24 11:29:00,
2013-04-24 06:44:00,46.3,41.0,30.18,NNW,342,3.0,9.0,81,0.00,,,0.00,weatherlink.com 1.10,2013-04-24 11:44:00,
2013-04-24 06:59:00,45.9,41.0,30.18,NNW,327,1.0,8.0,83,0.00,,,0.00,weatherlink.com 1.10,2013-04-24 11:59:00,
2013-04-24 07:14:00,45.5,41.0,30.19,North,360,2.0,7.0,83,0.00,,,0.00,weatherlink.com 1.10,2013-04-24 12:14:00,
2013-04-24 07:29:00,45.2,40.0,30.20,NNW,348,4.0,6.0,83,0.00,,,0.00,weatherlink.com 1.10,2013-04-24 12:29:00,
2013-04-24 07:44:00,45.2,41.0,30.20,NNW,342,0.0,4.0,84,0.00,,,0.00,weatherlink.com 1.10,2013-04-24 12:44:00,
2013-04-24 07:59:00,45.4,41.0,30.21,NNW,329,0.0,5.0,85,0.00,,,0.00,weatherlink.com 1.10,2013-04-24 12:59:00,
2013-04-24 08:14:00,45.4,41.0,30.22,NW,313,1.0,6.0,83,0.00,,,0.00,weatherlink.com 1.10,2013-04-24 13:14:00,
2013-04-24 08:29:00,45.3,40.0,30.22,NNW,331,1.0,7.0,83,0.00,,,0.00,weatherlink.com 1.10,2013-04-24 13:29:00,
2013-04-24 08:44:00,45.5,41.0,30.23,NNW,329,0.0,5.0,84,0.00,,,0.00,weatherlink.com 1.10,2013-04-24 13:44:00,
2013-04-24 08:59:00,45.9,41.0,30.23,North,355,3.0,7.0,82,0.00,,,0.00,weatherlink.com 1.10,2013-04-24 13:59:00,
2013-04-24 09:14:00,45.6,41.0,30.24,NNW,342,4.0,7.0,83,0.00,,,0.00,weatherlink.com 1.10,2013-04-24 14:14:00,
2013-04-24 09:29:00,45.9,41.0,30.24,NNW,329,0.0,9.0,82,0.00,,,0.00,weatherlink.com 1.10,2013-04-24 14:29:00,
2013-04-24 09:44:00,46.5,41.0,30.24,SSE,167,1.0,6.0,82,0.00,,,0.00,weatherlink.com 1.10,2013-04-24 14:44:00,
2013-04-24 09:59:00,47.1,41.0,30.25,North,355,3.0,9.0,79,0.00,,,0.00,weatherlink.com 1.10,2013-04-24 14:59:00,
2013-04-24 10:14:00,47.3,41.0,30.25,NNW,328,0.0,7.0,79,0.00,,,0.00,weatherlink.com 1.10,2013-04-24 15:14:00,
2013-04-24 10:29:00,47.2,41.0,30.26,NNW,332,1.0,5.0,80,0.00,,,0.00,weatherlink.com 1.10,2013-04-24 15:29:00,
2013-04-24 10:44:00,48.8,42.0,30.25,NW,315,0.0,7.0,77,0.00,,,0.00,weatherlink.com 1.10,2013-04-24 15:44:00,
2013-04-24 10:59:00,51.1,43.0,30.26,NNW,340,0.0,7.0,75,0.00,,,0.00,weatherlink.com 1.10,2013-04-24 15:59:00,
2013-04-24 11:14:00,50.7,44.0,30.26,NNW,327,1.0,6.0,77,0.00,,,0.00,weatherlink.com 1.10,2013-04-24 16:14:00,
2013-04-24 11:30:00,52.6,44.0,30.25,NW,304,2.0,8.0,73,0.00,,,0.00,weatherlink.com 1.10,2013-04-24 16:30:00,
2013-04-24 11:45:00,52.8,44.0,30.25,North,355,4.0,8.0,71,0.00,,,0.00,weatherlink.com 1.10,2013-04-24 16:45:00,
2013-04-24 12:00:00,54.3,43.0,30.25,NNW,329,2.0,8.0,66,0.00,,,0.00,weatherlink.com 1.10,2013-04-24 17:00:00,
2013-04-24 12:15:00,54.0,44.0,30.24,NW,315,3.0,8.0,68,0.00,,,0.00,weatherlink.com 1.10,2013-04-24 17:15:00,
2013-04-24 12:30:00,56.0,44.0,30.24,North,351,3.0,9.0,65,0.00,,,0.00,weatherlink.com 1.10,2013-04-24 17:30:00,
2013-04-24 12:45:00,55.1,44.0,30.24,NNW,342,3.0,9.0,66,0.00,,,0.00,weatherlink.com 1.10,2013-04-24 17:45:00,
2013-04-24 13:00:00,57.0,45.0,30.23,NW,312,2.0,6.0,64,0.00,,,0.00,weatherlink.com 1.10,2013-04-24 18:00:00,
2013-04-24 13:15:00,56.5,44.0,30.22,NNW,336,6.0,11.0,64,0.00,,,0.00,weatherlink.com 1.10,2013-04-24 18:15:00,
2013-04-24 13:30:00,58.6,46.0,30.22,NNW,336,0.0,5.0,64,0.00,,,0.00,weatherlink.com 1.10,2013-04-24 18:30:00,
2013-04-24 13:45:00,60.1,46.0,30.21,NNE,28,2.0,7.0,59,0.00,,,0.00,weatherlink.com 1.10,2013-04-24 18:45:00,
2013-04-24 14:00:00,61.4,46.0,30.21,NNW,345,1.0,7.0,57,0.00,,,0.00,weatherlink.com 1.10,2013-04-24 19:00:00,
2013-04-24 14:15:00,60.6,45.0,30.20,NW,317,1.0,9.0,57,0.00,,,0.00,weatherlink.com 1.10,2013-04-24 19:15:00,
2013-04-24 14:30:00,61.3,45.0,30.20,NW,319,0.0,9.0,55,0.00,,,0.00,weatherlink.com 1.10,2013-04-24 19:30:00,
2013-04-24 14:45:00,62.1,44.0,30.19,North,5,3.0,8.0,51,0.00,,,0.00,weatherlink.com 1.10,2013-04-24 19:45:00,
2013-04-24 15:00:00,62.4,46.0,30.20,NNW,341,0.0,9.0,56,0.00,,,0.00,weatherlink.com 1.10,2013-04-24 20:00:00,
2013-04-24 15:15:00,63.9,47.0,30.20,NW,323,4.0,8.0,54,0.00,,,0.00,weatherlink.com 1.10,2013-04-24 20:15:00,
2013-04-24 15:30:00,63.6,45.0,30.19,NW,319,6.0,6.0,51,0.00,,,0.00,weatherlink.com 1.10,2013-04-24 20:30:00,
2013-04-24 15:45:00,63.2,45.0,30.18,NNW,330,3.0,11.0,51,0.00,,,0.00,weatherlink.com 1.10,2013-04-24 20:45:00,
2013-04-24 16:00:00,66.4,48.0,30.18,NNW,340,1.0,4.0,51,0.00,,,0.00,weatherlink.com 1.10,2013-04-24 21:00:00,
2013-04-24 16:15:00,64.8,44.0,30.17,NW,312,1.0,8.0,48,0.00,,,0.00,weatherlink.com 1.10,2013-04-24 21:15:00,
2013-04-24 16:30:00,66.4,45.0,30.17,NNW,332,2.0,4.0,47,0.00,,,0.00,weatherlink.com 1.10,2013-04-24 21:30:00,
2013-04-24 16:45:00,65.0,45.0,30.16,NNW,348,3.0,4.0,48,0.00,,,0.00,weatherlink.com 1.10,2013-04-24 21:45:00,
2013-04-24 17:00:00,63.9,45.0,30.16,NNW,338,1.0,7.0,51,0.00,,,0.00,weatherlink.com 1.10,2013-04-24 22:00:00,
2013-04-24 17:15:00,63.7,45.0,30.17,NW,311,0.0,4.0,51,0.00,,,0.00,weatherlink.com 1.10,2013-04-24 22:15:00,
2013-04-24 17:30:00,64.3,44.0,30.16,NW,321,1.0,5.0,48,0.00,,,0.00,weatherlink.com 1.10,2013-04-24 22:30:00,
2013-04-24 17:45:00,64.0,45.0,30.16,NNW,334,2.0,6.0,50,0.00,,,0.00,weatherlink.com 1.10,2013-04-24 22:45:00,
2013-04-24 18:00:00,63.9,46.0,30.16,ENE,57,0.0,5.0,53,0.00,,,0.00,weatherlink.com 1.10,2013-04-24 23:00:00,
2013-04-24 18:15:00,63.5,45.0,30.17,ENE,67,2.0,5.0,52,0.00,,,0.00,weatherlink.com 1.10,2013-04-24 23:15:00,
2013-04-24 18:30:00,63.0,45.0,30.17,NNW,348,0.0,8.0,52,0.00,,,0.00,weatherlink.com 1.10,2013-04-24 23:30:00,
2013-04-24 18:45:00,62.6,47.0,30.18,NNW,346,1.0,2.0,58,0.00,,,0.00,weatherlink.com 1.10,2013-04-24 23:45:00,
2013-04-24 19:00:00,62.1,46.0,30.18,NNW,346,0.0,2.0,56,0.00,,,0.00,weatherlink.com 1.10,2013-04-25 00:00:00,
2013-04-24 19:15:00,61.5,47.0,30.18,NNW,346,0.0,1.0,60,0.00,,,0.00,weatherlink.com 1.10,2013-04-25 00:15:00,
2013-04-24 19:30:00,60.5,47.0,30.19,NNW,346,0.0,0.0,62,0.00,,,0.00,weatherlink.com 1.10,2013-04-25 00:30:00,
2013-04-24 19:45:00,59.6,49.0,30.19,NNW,346,0.0,0.0,68,0.00,,,0.00,weatherlink.com 1.10,2013-04-25 00:45:00,
2013-04-24 20:00:00,58.6,48.0,30.20,NNW,346,0.0,0.0,68,0.00,,,0.00,weatherlink.com 1.10,2013-04-25 01:00:00,
2013-04-24 20:15:00,57.7,48.0,30.20,NNW,346,0.0,0.0,70,0.00,,,0.00,weatherlink.com 1.10,2013-04-25 01:15:00,
2013-04-24 20:30:00,57.0,48.0,30.21,NNW,346,0.0,0.0,72,0.00,,,0.00,weatherlink.com 1.10,2013-04-25 01:30:00,
2013-04-24 20:45:00,56.3,48.0,30.22,NNW,346,0.0,0.0,73,0.00,,,0.00,weatherlink.com 1.10,2013-04-25 01:45:00,
2013-04-24 21:00:00,55.9,48.0,30.23,NNW,346,0.0,0.0,75,0.00,,,0.00,weatherlink.com 1.10,2013-04-25 02:00:00,
2013-04-24 21:15:00,55.4,48.0,30.23,NNW,346,0.0,0.0,77,0.00,,,0.00,weatherlink.com 1.10,2013-04-25 02:15:00,
2013-04-24 21:30:00,55.0,48.0,30.24,NNW,346,0.0,0.0,78,0.00,,,0.00,weatherlink.com 1.10,2013-04-25 02:30:00,
2013-04-24 21:45:00,54.4,48.0,30.25,NNW,346,0.0,0.0,79,0.00,,,0.00,weatherlink.com 1.10,2013-04-25 02:45:00,
2013-04-24 22:00:00,54.0,48.0,30.25,NNW,346,0.0,1.0,80,0.00,,,0.00,weatherlink.com 1.10,2013-04-25 03:00:00,
2013-04-24 22:16:00,53.7,48.0,30.25,NNW,346,1.0,2.0,81,0.00,,,0.00,weatherlink.com 1.10,2013-04-25 03:16:00,
2013-04-24 22:30:00,53.6,49.0,30.25,NNW,336,1.0,4.0,83,0.00,,,0.00,weatherlink.com 1.10,2013-04-25 03:30:00,
2013-04-24 22:45:00,53.9,48.0,30.25,NNW,336,2.0,4.0,81,0.00,,,0.00,weatherlink.com 1.10,2013-04-25 03:45:00,
2013-04-24 23:00:00,54.0,48.0,30.25,NNW,336,1.0,3.0,79,0.00,,,0.00,weatherlink.com 1.10,2013-04-25 04:00:00,
2013-04-24 23:15:00,53.8,48.0,30.25,NNW,336,0.0,1.0,81,0.00,,,0.00,weatherlink.com 1.10,2013-04-25 04:15:00,
2013-04-24 23:30:00,53.6,47.0,30.25,NNW,336,0.0,1.0,79,0.00,,,0.00,weatherlink.com 1.10,2013-04-25 04:30:00,
2013-04-24 23:45:00,53.3,47.0,30.26,NNW,336,0.0,0.0,80,0.00,,,0.00,weatherlink.com 1.10,2013-04-25 04:45:00,